GPS IIR-4

operational
NORAD ID: 26360 Int'l Des: 2000-025 Owner: AFSMC Country: US Constellation: GPS
MEOCIRCULARGNSS

Über GPS IIR-4

Beschreibung wird geladen...

Live-Position

3D-Globus wird geladen...

Nächste Überflüge

Höhenverlauf

Altitude vs Time

uPlot chart will show altitude changes over time

Zweizeiliger Elementsatz

1 26360U 00025A 25305.95687102 -.00000072 00000-0 00000-0 0 9997
2 26360 55.0218 28.4878 0038264 238.1353 291.7197 2.00570945186716
Epoch: 1. Nov. 2025 • Age: 29 hours

Aktueller Status

Höhe 20182.9 km
Geschwindigkeit 3.87 km/s
Subsatellitenpunkt -28.75°S, 96.89°W
Startdatum 11. Mai 2000
Alter 25.4 years
Typ navigation

Technische Details

Klassifizierung Payload
Masse 1077.00 kg
Trockenmasse 910.00 kg
Gesamtmasse 2032.00 kg
Länge 1.50 m
Durchmesser 1.90 m
Spannweite 19.30 m
Form Box + 2 Pan
Hersteller LMMS
Bus-Typ Series 4000
Phasenstatus In Orbit
Besitzer/Staat AFSMC/US

Große Konstellationen

Loading constellations...